User: anonymous   Login
Location: Albany
(35.0000°S, 118.0000°E)
Time: 14:01:56
(UTC-04:00)
Language:

Cosmos 1346 Rocket - Orbit

View from above orbital plane
View from above orbital plane
View from above satellite
View from above satellite

Ground track
Ground track

The orbit data is extracted from the following two-line orbital elements,

1 13121U 82027B   14296.74580853  .00003987  00000-0  27268-3 0  5293
2 13121 081.1672 149.0582 0029220 121.0371 239.3727 15.05567459771234
Epoch (UTC): 23 October 2014 17:53:57
Eccentricity: 0.0029220
inclination: 81.1672°
perigee height: 529 km
apogee height: 570 km
right ascension of ascending node: 149.0582°
argument of perigee: 121.0371°
revolutions per day: 15.05567459
mean anomaly at epoch: 239.3727°
orbit number at epoch: 77123

The dashed part of the orbit path shows where the satellite is in the earth's shadow,  

DLR